Volver al catálogo

STARLINK-3191

ActivoComunicacionesVLEO
NORAD 49770·PAYLOAD·🇺🇸 United States

Lanzado Dec 2, 2021 desde Cape Canaveral Space Force Station

Loading…

Próximos Pases (próximas 24 horas)

TLE

ActualizadoSource: CelesTrak SupGP

Época: Sep 14, 2026, 20:00 UTC

1 49770C 21115AY  26257.83381944 -.00022517  00000+0 -72414-3 0  2575
2 49770  53.1593   0.2019 0001016  78.7048 256.6522 15.31710923    10

Sigue STARLINK-3191 en tiempo real con AllMySat

Download on the App Store